Branson, MO

3:25 AM CDT on April 26, 2017 (GMT -0500)
Branson

Weather History for KBBG - November, 2013

Change the Weather History Date:

Friday, November 1, 2013

  Actual Average (KHRO) Record (KHRO)
Temperature  
Mean Temperature 56 °F -  
Max Temperature 64 °F 65 °F 86 °F (1927)
Min Temperature 48 °F 45 °F 20 °F (1906)
Degree Days  
Heating Degree Days 9    
Growing Degree Days 6 (Base 50)    
Moisture  
Dew Point 41 °F    
Average Humidity 57    
Maximum Humidity 82    
Minimum Humidity 37    
Precipitation  
Precipitation 0.00 in - - ()
Sea Level Pressure  
Sea Level Pressure 29.84 in    
Wind  
Wind Speed 6 mph (WSW)    
Max Wind Speed 12 mph    
Max Gust Speed 16 mph    
Visibility 10 miles    
Events      
Averages and records for this station are not official NWS values.
T = Trace of Precipitation, MM = Missing Value Source: NWS Daily Summary

Daily Weather History Graph

Daily Weather History Graph

Search for Another Location

Airport or City:

Trip Planner

Search our weather history database for the weather conditions in past years. The results will help you decide how hot, cold, wet, or windy it might be!

Date:

Astronomy

Nov. 01, 2013 Rise Set
Actual Time 7:36 AM CDT 6:15 PM CDT
Civil Twilight 7:09 AM CDT 6:42 PM CDT
Nautical Twilight 6:39 AM CDT 7:13 PM CDT
Astronomical Twilight 6:09 AM CDT 7:43 PM CDT
Moon 5:32 AM CDT (11/1) 5:07 PM CDT (11/1)
Length of Visible Light 11h 32m
Length of Day
10h 39m
Waning Crescent, 4% of the Moon is Illuminated
Nov 1
Waning Crescent
Nov 3
New
Nov 9
First Quarter
Nov 17
Full
Nov 25
Last Quarter

Hourly Weather History & Observations

Time (CDT) Temp. Dew Point Humidity Pressure Visibility Wind Dir Wind Speed Gust Speed Precip Events Conditions
12:15 AM 50.0 °F - N/A% 29.77 in 10.0 mi SW 6.9 mph - N/A   Clear
12:35 AM 50.0 °F - N/A% 29.77 in 10.0 mi SW 8.1 mph - N/A   Clear
12:55 AM 50.0 °F - N/A% 29.78 in 10.0 mi SW 5.8 mph - N/A   Clear
1:15 AM 50.0 °F - N/A% 29.78 in 10.0 mi SW 8.1 mph - N/A   Clear
1:35 AM 50.0 °F - N/A% 29.79 in 10.0 mi SW 8.1 mph - N/A   Clear
1:55 AM 50.0 °F - N/A% 29.80 in 10.0 mi SW 9.2 mph - N/A   Clear
2:15 AM 50.0 °F - N/A% 29.78 in 10.0 mi WSW 4.6 mph - N/A   Clear
2:35 AM 50.0 °F - N/A% 29.78 in 10.0 mi SW 3.5 mph - N/A   Clear
2:55 AM 50.0 °F - N/A% 29.78 in 10.0 mi WSW 6.9 mph - N/A   Clear
3:15 AM 50.0 °F - N/A% 29.77 in 10.0 mi WSW 4.6 mph - N/A   Clear
3:35 AM 48.2 °F - N/A% 29.77 in 10.0 mi Calm Calm - N/A   Clear
3:55 AM 48.2 °F - N/A% 29.77 in 10.0 mi SW 4.6 mph - N/A   Clear
4:15 AM 48.2 °F - N/A% 29.76 in 10.0 mi WSW 4.6 mph - N/A   Clear
4:35 AM 48.2 °F - N/A% 29.76 in 10.0 mi Calm Calm - N/A   Clear
4:55 AM 48.2 °F - N/A% 29.76 in 10.0 mi SW 5.8 mph - N/A   Clear
5:15 AM 48.2 °F - N/A% 29.77 in 10.0 mi SW 4.6 mph - N/A   Clear
5:35 AM 48.2 °F - N/A% 29.77 in 10.0 mi SW 4.6 mph - N/A   Clear
5:55 AM 48.2 °F - N/A% 29.78 in 10.0 mi SW 4.6 mph - N/A   Clear
6:15 AM 48.2 °F - N/A% 29.78 in 10.0 mi Calm Calm - N/A   Clear
6:35 AM 48.2 °F - N/A% 29.78 in 10.0 mi WSW 5.8 mph - N/A   Clear
6:45 AM 48.2 °F 42.8 °F 82% 29.78 in 10.0 mi WSW 5.8 mph - N/A   Clear
7:45 AM 48.2 °F 42.8 °F 82% 29.81 in 10.0 mi Calm Calm - N/A   Partly Cloudy
8:59 AM 50.0 °F 42.8 °F 76% 29.84 in 10.0 mi Calm Calm - N/A   Partly Cloudy
9:47 AM 53.6 °F 42.8 °F 67% 29.86 in 10.0 mi West 4.6 mph - N/A   Clear
10:50 AM 57.2 °F 41.0 °F 55% 29.86 in 10.0 mi WNW 9.2 mph - N/A   Clear
11:45 AM 59.0 °F 41.0 °F 51% 29.87 in 10.0 mi WSW 5.8 mph - N/A   Clear
12:45 PM 62.6 °F 41.0 °F 45% 29.86 in 10.0 mi WNW 9.2 mph - N/A   Clear
1:45 PM 64.4 °F 41.0 °F 42% 29.85 in 10.0 mi WNW 6.9 mph - N/A   Clear
2:45 PM 64.4 °F 37.4 °F 37% 29.84 in 10.0 mi NW 11.5 mph 16.1 mph N/A   Scattered Clouds
3:55 PM 64.4 °F 37.4 °F 37% 29.85 in 10.0 mi WNW 11.5 mph - N/A   Scattered Clouds
4:45 PM 62.6 °F 39.2 °F 42% 29.85 in 10.0 mi NNW 9.2 mph - N/A   Mostly Cloudy
5:45 PM 59.0 °F 41.0 °F 51% 29.86 in 10.0 mi NW 9.2 mph - N/A   Mostly Cloudy
6:52 PM 57.2 °F 41.0 °F 55% 29.89 in 10.0 mi Calm Calm - N/A   Mostly Cloudy
7:45 PM 55.4 °F 41.0 °F 58% 29.91 in 10.0 mi WNW 6.9 mph - N/A   Overcast
8:45 PM 50.0 °F 44.6 °F 82% 29.94 in 10.0 mi WNW 6.9 mph - N/A   Partly Cloudy
9:15 PM 50.0 °F - N/A% 29.95 in 10.0 mi WNW 5.8 mph - N/A   Clear
9:35 PM 50.0 °F - N/A% 29.96 in 10.0 mi WNW 6.9 mph - N/A   Clear
9:55 PM 50.0 °F - N/A% 29.97 in 10.0 mi WNW 4.6 mph - N/A   Clear
10:15 PM 50.0 °F - N/A% 29.98 in 10.0 mi Calm Calm - N/A   Clear
10:35 PM 50.0 °F - N/A% 29.99 in 10.0 mi Calm Calm - N/A   Clear
10:55 PM 50.0 °F - N/A% 29.99 in 10.0 mi Calm Calm - N/A   Clear
11:15 PM 50.0 °F - N/A% 29.99 in 10.0 mi Calm Calm - N/A   Clear
11:35 PM 50.0 °F - N/A% 29.99 in 10.0 mi Calm Calm - N/A   Clear
11:55 PM 48.2 °F - N/A% 29.98 in 10.0 mi Calm Calm - N/A   Clear